Location: Krasnoyarskiy Pitomnik
(51.1333°N, 71.6167°E)
Time: 00:05:53
(UTC+00:00)

Courier 1B Rocket - Pass Details

Date: 25 April 2024
Orbit: 920 x 1201 km, 28.2° (Epoch: 19 May)

Event Time Altitude Azimuth Distance (km) Brightness Sun altitude
Exits shadow 21:57:35 10° 179° (S) 3,097 7.2 -15.9°
Maximum altitude 21:58:35 10° 172° (S) 3,069 7.2 -15.8°
Drops below altitude 10° 21:59:38 10° 164° (SSE) 3,085 7.3 -15.7°
Sets 22:05:50 0° 126° (SE) 3,983 8.3 -15.0°
